Temperature
16 16 16 16 16 16 16 16 16 15 16 16 16 16 16 16 16 16 16 16 16 16 16 16 15 16 15 15 15 15 15 15 14 14 14 14 14 14
16 16 16 16 16 16 16 16 16 16 15 16 16 16 16 16 16 16 16 16 16 16 15 15 15 15 15 15 15 15 15 15 15 14 14 14 14 14
16 16 16 16 16 16 16 16 16 15 15 16 16 16 16 16 16 16 15 15 15 15 15 15 15 15 15 15 15 15 15 15 14 14 14 14 14 14
16 16 16 16 16 16 16 16 16 15 15 15 16 16 16 15 15 15 15 15 15 15 15 15 15 15 15 15 15 14 14 14 14 14 14 14 14 13
16 16 16 16 16 16 16 15 15 15 15 15 15 15 15 15 15 15 15 15 15 15 15 15 15 15 15 14 14 14 14 14 14 14 14 14 13 13
16 16 16 16 16 15 15 15 15 15 15 15 15 15 15 15 15 15 15 15 15 15 15 15 14 14 14 14 14 14 14 14 14 14 14 13 13 13
16 16 16 16 15 15 15 15 15 15 15 15 15 15 15 15 14 14 14 14 15 15 14 14 14 14 14 14 14 14 14 14 14 13 13 13 13 13
16 16 16 15 15 15 15 15 15 15 15 15 14 14 14 14 14 14 14 14 14 14 14 14 14 14 14 14 14 14 13 13 13 13 13 13 13 13
15 15 15 15 15 15 15 15 15 15 14 14 14 14 14 14 14 14 14 14 14 14 13 14 14 14 14 14 14 13 13 13 13 13 13 13 13 13
15 15 15 15 15 15 15 15 15 14 14 14 14 14 14 14 14 14 13 13 13 13 13 13 13 13 13 13 13 13 13 13 13 13 13 13 13 13
14 14 14 14 14 14 14 14 14 14 14 14 14 14 14 14 13 13 13 13 13 13 13 12 13 13 13 13 13 13 13 13 13 13 13 13 13 12
14 14 14 14 14 14 14 14 14 14 14 14 14 14 13 13 13 13 13 13 13 12 12 12 12 12 12 12 13 13 13 13 12 12 12 12 12 12
14 14 14 14 14 14 14 14 14 14 13 13 13 13 13 13 13 13 13 12 12 12 12 12 12 11 11 11 12 12 12 12 12 12 12 12 12 12
13 13 13 13 13 13 13 13 13 13 13 13 13 13 13 13 13 13 12 12 12 12 12 11 11 11 11 11 11 11 12 12 12 12 12 12 12 12
13 13 13 13 13 13 13 13 13 12 12 12 12 12 12 12 12 12 12 12 12 12 11 11 11 11 11 10 11 11 11 11 11 11 12 12 12 12
12 12 12 12 12 12 12 12 12 12 12 12 12 12 11 11 11 11 11 11 11 11 11 11 11 11 10 10 10 10 10 10 11 11 11 11 11 11
12 12 12 12 12 12 12 12 11 11 11 11 11 11 11 11 11 11 11 11 11 10 11 11 10 10 10 10 10 10 10 10 10 10 10 10 11 11
11 11 11 11 11 11 11 11 11 11 11 10 10 10 10 10 10 10 10 10 10 10 10 10 10 10 10 10 10 10 10 10 10 10 10 10 10 10
10 10 10 10 10 10 10 10 10 10 10 10 10 10 9 9 9 9 9 9 9 9 9 9 9 9 8 8 9 9 9 9 9 9 9 9 10 10
10 10 10 10 10 10 10 10 9 9 9 9 9 9 9 9 9 9 9 8 8 9 9 9 8 8 8 8 8 9 9 8 8 9 9 9 9 9
10 10 9 9 9 9 9 9 9 9 9 8 8 8 8 8 8 8 8 8 8 8 8 8 8 8 7 7 7 8 8 8 8 8 8 8 8 9
9 9 9 9 9 9 9 8 8 8 8 8 8 8 8 8 8 8 7 7 7 7 7 7 7 7 7 7 7 7 7 8 8 8 8 8 7 7
9 8 8 8 8 8 8 8 8 7 8 7 7 7 7 7 7 7 7 7 7 7 7 7 7 6 6 6 6 6 6 7 7 7 7 8 7 7
Wind_Speed
3 3 2 2 2 3 3 3 3 2 3 2 2 2 3 5 6 6 7 7 9 9 10 11 11 11 11 10 10 9 9 9 9 10 10 10 10 11
2 2 2 2 2 2 3 3 3 3 3 2 3 3 3 4 5 6 7 8 9 9 9 10 10 11 11 10 10 10 10 9 10 10 9 9 10 10
2 3 3 3 3 3 2 3 3 3 4 4 2 2 3 3 3 4 5 6 6 8 9 10 10 10 10 10 10 10 10 10 10 10 10 10 10 11
4 3 4 3 3 3 3 3 4 4 4 5 3 2 3 3 2 3 3 4 5 7 9 10 10 10 11 11 10 10 10 10 10 10 10 10 10 11
4 4 4 3 3 3 3 3 3 4 4 4 4 2 2 2 2 2 2 2 4 5 8 9 10 11 11 11 11 11 11 11 10 10 10 10 10 10
5 5 5 5 6 5 4 4 4 3 3 4 4 3 3 2 1 2 3 2 3 3 4 6 8 10 11 12 12 12 13 12 12 12 11 11 11 11
4 5 5 6 6 6 5 5 5 4 3 3 4 3 3 2 2 2 3 3 3 3 3 3 4 5 7 9 11 13 14 14 14 14 13 12 12 11
5 5 5 5 6 7 7 7 7 6 5 5 4 5 5 4 3 3 3 2 3 2 2 3 3 4 5 7 10 12 14 14 14 14 13 13 12 12
5 5 5 4 5 5 6 6 6 6 7 6 6 7 6 5 4 4 4 4 5 3 2 4 3 5 6 8 11 13 14 14 14 14 14 14 14 14
5 5 5 4 3 4 4 4 4 5 6 6 6 7 6 5 5 5 5 4 4 3 3 4 4 5 6 7 10 13 15 15 15 16 16 15 15 15
4 4 4 5 5 4 4 4 4 4 4 5 6 5 5 5 4 2 2 2 4 4 3 3 3 4 4 6 8 12 14 16 16 15 15 16 16 14
3 3 4 5 4 4 4 4 5 5 3 3 3 4 4 4 5 5 5 4 3 4 3 3 3 2 4 4 5 6 8 12 15 15 15 15 14 10
3 3 4 4 4 4 5 5 6 5 3 2 2 3 2 2 3 4 5 5 5 5 3 3 3 3 4 4 4 5 5 6 8 10 13 14 15 12
4 4 4 4 4 4 4 5 5 3 2 1 2 2 3 3 4 4 5 6 6 7 5 5 4 4 5 5 5 4 4 5 6 6 7 9 12 15
3 3 3 3 2 2 3 3 3 2 2 2 3 3 4 4 3 3 3 4 4 5 5 5 5 4 5 6 6 5 4 5 5 6 6 6 6 7
2 2 2 1 1 1 1 1 2 2 2 3 3 3 3 2 2 2 2 3 3 4 4 5 5 5 5 7 6 7 6 4 4 5 6 6 6 7
1 1 1 1 1 2 2 2 2 1 2 2 2 2 2 2 3 2 2 2 3 4 4 4 4 4 6 6 6 6 6 6 5 5 5 6 7 7
0 1 1 2 2 2 2 2 2 2 2 2 2 2 2 3 3 3 2 2 3 4 4 4 4 3 3 4 5 6 6 6 6 5 5 6 8 7
0 2 2 2 2 2 2 2 2 2 2 2 2 2 2 2 2 3 3 3 3 4 4 4 3 3 4 7 5 5 6 6 6 6 5 6 7 7
1 2 3 3 2 2 2 2 2 2 2 2 2 2 2 2 2 3 3 3 4 4 4 4 4 4 5 6 6 6 7 7 6 7 6 6 7 7
1 1 2 2 2 2 2 2 2 2 2 2 2 2 2 2 3 3 3 4 4 4 5 6 5 6 5 4 5 6 6 6 8 7 6 6 6 5
2 2 2 2 2 2 2 2 2 2 2 2 2 2 2 2 3 3 3 4 4 4 6 6 5 4 4 5 6 7 7 7 7 8 8 8 5 5
2 2 2 2 2 2 2 2 3 3 2 2 2 2 2 2 3 3 3 3 4 4 5 5 5 4 5 5 6 6 8 8 6 6 6 8 11 13
Wind_Direction
213 208 213 226 210 211 203 196 199 256 283 273 269 271 251 243 247 242 242 247 245 244 239 236 234 231 229 228 229 232 235 239 242 244 244 240 239 241
205 205 220 227 218 214 211 210 210 218 256 266 255 274 274 268 256 245 246 248 247 244 240 238 234 227 224 225 228 231 235 237 239 242 243 242 239 239
218 211 228 219 216 221 216 210 213 211 242 270 255 266 260 269 279 255 250 244 246 243 240 240 235 228 224 224 227 232 235 238 239 241 240 240 241 242
228 223 237 229 225 228 220 223 222 219 227 260 272 266 257 262 278 271 266 253 249 249 241 236 233 231 229 229 231 232 232 235 239 242 241 240 240 240
226 224 234 223 234 235 228 235 237 231 226 240 263 262 260 265 281 279 272 264 259 254 241 237 236 234 233 232 231 231 231 233 236 239 240 241 241 239
227 228 230 224 229 232 233 237 237 236 232 238 255 264 263 261 257 265 281 273 276 272 251 248 242 239 236 233 231 231 231 232 234 235 236 239 240 240
235 238 238 232 227 227 232 231 226 230 235 241 253 261 262 254 256 245 265 281 276 253 267 266 254 249 243 235 232 233 232 233 234 235 235 237 240 239
240 248 248 246 242 236 235 230 219 223 230 235 246 252 258 251 248 243 253 274 282 248 250 274 249 252 250 240 237 234 234 235 235 233 234 236 238 238
240 246 253 256 247 250 249 244 238 232 224 226 238 247 253 246 235 240 240 247 258 255 237 272 261 259 259 251 243 239 237 236 235 236 238 239 239 239
243 240 244 261 260 248 249 253 255 251 239 232 238 247 251 249 234 237 241 250 265 249 217 257 266 266 267 257 247 239 235 236 238 238 238 238 239 239
255 249 243 250 261 236 233 250 266 273 264 246 245 252 252 246 231 221 228 245 270 263 219 237 263 275 271 262 251 241 240 241 241 240 240 238 237 235
257 258 251 250 255 229 226 239 256 267 277 283 280 278 266 251 227 222 221 230 255 262 223 220 252 265 273 261 260 254 249 246 243 242 240 238 233 227
248 258 263 254 247 236 226 238 248 254 258 260 276 287 284 269 253 240 229 224 238 251 232 211 238 240 249 272 273 259 252 254 249 247 243 237 228 218
249 260 266 264 249 242 237 247 248 233 237 249 272 279 276 273 271 264 252 246 243 249 242 227 238 244 253 268 274 270 264 258 251 251 246 238 230 227
254 267 282 285 254 247 252 247 228 223 227 243 255 262 262 266 273 275 273 269 266 260 249 241 247 255 253 259 266 267 274 270 253 251 245 237 232 227
271 287 294 315 304 291 308 273 243 231 224 242 258 271 280 289 286 282 279 284 281 289 286 270 261 257 258 261 261 268 267 266 264 256 254 249 239 230
279 309 326 343 331 318 309 289 269 246 239 256 261 276 293 296 298 300 287 284 282 294 305 309 302 284 266 258 262 264 271 272 268 262 254 256 250 239
96 295 297 287 280 281 283 290 287 275 262 255 259 265 276 285 298 306 300 285 284 291 297 305 318 320 312 287 245 260 272 277 282 269 257 257 259 251
99 284 285 284 282 288 289 287 287 281 269 262 263 269 273 278 284 291 293 291 292 295 298 303 305 302 297 297 286 241 263 280 283 278 267 261 265 265
259 272 276 278 275 277 285 287 286 287 279 277 281 279 274 271 277 285 285 285 289 295 299 301 295 284 274 280 285 291 269 267 275 276 276 275 274 274
294 289 289 289 294 295 291 280 274 276 282 288 293 289 286 281 283 287 287 288 288 292 294 296 294 289 283 277 284 291 295 278 269 270 275 277 279 275
310 310 313 312 309 308 300 302 304 300 298 296 297 301 303 295 292 299 300 301 299 294 297 301 307 307 292 283 286 291 298 306 297 277 263 252 259 261
308 311 316 322 329 335 338 340 326 311 307 299 296 295 295 296 298 300 306 310 315 318 321 320 321 314 301 291 291 295 300 307 309 305 292 281 265 264
Height
1543 1543 1544 1544 1544 1545 1545 1545 1546 1544 1544 1544 1545 1545 1545 1545 1545 1545 1545 1545 1545 1545 1545 1545 1546 1546 1546 1547 1547 1547 1547 1547 1547 1547 1547 1548 1548 1549
1540 1541 1541 1541 1542 1542 1543 1543 1543 1543 1542 1541 1542 1542 1542 1542 1542 1541 1541 1541 1541 1541 1541 1541 1542 1542 1542 1542 1543 1543 1543 1543 1543 1543 1544 1544 1544 1545
1538 1538 1538 1539 1539 1540 1540 1540 1540 1540 1539 1539 1539 1539 1539 1539 1538 1538 1538 1537 1537 1537 1537 1537 1538 1538 1538 1538 1538 1539 1539 1539 1539 1539 1540 1540 1540 1541
1535 1536 1536 1536 1537 1537 1537 1537 1537 1537 1537 1536 1536 1536 1535 1535 1535 1534 1534 1534 1533 1533 1533 1533 1533 1534 1534 1534 1534 1534 1534 1535 1535 1535 1536 1536 1537 1537
1533 1533 1533 1533 1533 1534 1534 1534 1534 1534 1533 1533 1532 1532 1532 1531 1531 1530 1530 1530 1530 1530 1529 1529 1529 1529 1529 1529 1529 1530 1530 1531 1531 1531 1532 1532 1533 1533
1530 1530 1530 1530 1530 1530 1530 1530 1530 1530 1530 1529 1528 1528 1528 1527 1527 1526 1526 1526 1526 1526 1525 1525 1525 1524 1524 1524 1524 1525 1526 1526 1526 1527 1527 1527 1528 1529
1526 1526 1527 1527 1527 1527 1527 1526 1526 1526 1526 1525 1525 1524 1524 1523 1523 1523 1523 1522 1522 1522 1521 1521 1520 1519 1519 1519 1520 1520 1521 1521 1521 1522 1522 1523 1523 1524
1522 1522 1523 1523 1523 1523 1523 1523 1522 1522 1521 1521 1520 1520 1520 1520 1520 1519 1519 1518 1517 1518 1517 1516 1516 1515 1515 1515 1515 1515 1515 1516 1516 1517 1517 1517 1518 1519
1518 1518 1518 1518 1518 1518 1518 1518 1518 1517 1517 1517 1516 1516 1516 1516 1516 1515 1515 1514 1514 1514 1513 1511 1512 1511 1511 1511 1510 1510 1510 1510 1511 1511 1512 1512 1513 1513
1514 1514 1514 1514 1514 1514 1514 1513 1513 1513 1512 1512 1512 1512 1512 1512 1512 1512 1511 1510 1510 1509 1509 1507 1507 1507 1507 1506 1506 1505 1505 1505 1505 1506 1506 1507 1507 1508
1509 1509 1509 1509 1509 1509 1509 1509 1508 1508 1508 1508 1508 1508 1508 1508 1508 1507 1506 1506 1504 1504 1504 1503 1502 1501 1501 1500 1501 1500 1500 1500 1500 1500 1501 1501 1501 1502
1504 1504 1505 1504 1504 1505 1505 1504 1503 1503 1504 1504 1504 1504 1503 1503 1503 1502 1502 1501 1500 1499 1499 1499 1497 1497 1495 1494 1495 1495 1495 1494 1494 1494 1495 1495 1495 1496
1499 1499 1500 1500 1500 1500 1500 1500 1499 1499 1499 1499 1499 1499 1498 1498 1498 1497 1497 1496 1495 1494 1494 1494 1492 1492 1491 1489 1488 1489 1489 1488 1488 1488 1488 1489 1489 1489
1495 1495 1495 1496 1495 1495 1495 1495 1495 1495 1494 1494 1493 1493 1493 1493 1492 1492 1492 1491 1491 1490 1489 1488 1487 1486 1485 1484 1483 1482 1482 1482 1482 1481 1481 1482 1482 1483
1491 1491 1491 1491 1491 1491 1490 1491 1491 1490 1490 1489 1488 1488 1488 1488 1487 1487 1487 1486 1485 1485 1484 1483 1482 1481 1480 1479 1478 1477 1476 1476 1476 1475 1475 1475 1475 1475
1486 1486 1487 1486 1486 1486 1486 1486 1485 1485 1485 1484 1483 1483 1483 1483 1482 1481 1480 1480 1479 1478 1478 1477 1476 1475 1474 1473 1472 1471 1471 1470 1469 1469 1468 1468 1468 1468
1483 1482 1482 1482 1481 1481 1481 1481 1480 1480 1479 1479 1478 1478 1478 1477 1477 1476 1475 1474 1473 1472 1471 1471 1470 1469 1468 1468 1466 1465 1465 1464 1463 1462 1462 1461 1461 1461
1479 1478 1478 1477 1477 1477 1476 1476 1476 1475 1475 1474 1474 1473 1472 1472 1471 1471 1470 1470 1469 1467 1466 1465 1464 1463 1462 1461 1461 1459 1459 1458 1457 1456 1455 1454 1453 1454
1476 1475 1475 1475 1474 1474 1473 1473 1472 1472 1471 1470 1469 1468 1468 1468 1467 1466 1466 1465 1464 1463 1462 1461 1460 1458 1457 1455 1454 1455 1453 1452 1451 1450 1449 1448 1447 1447
1473 1473 1473 1472 1471 1470 1470 1469 1469 1468 1468 1466 1465 1465 1465 1464 1463 1462 1461 1460 1459 1458 1457 1456 1455 1454 1453 1451 1449 1448 1448 1446 1445 1443 1442 1441 1441 1441
1472 1471 1470 1469 1468 1467 1467 1466 1465 1465 1464 1463 1462 1462 1461 1460 1459 1458 1458 1456 1455 1454 1452 1451 1450 1450 1449 1447 1444 1442 1441 1441 1440 1438 1437 1436 1434 1433
1470 1469 1468 1467 1466 1465 1464 1463 1462 1461 1460 1460 1459 1458 1458 1457 1456 1455 1454 1452 1450 1449 1448 1447 1446 1445 1444 1442 1439 1437 1435 1434 1433 1432 1432 1431 1429 1427
1469 1467 1466 1466 1464 1463 1461 1460 1459 1458 1457 1457 1456 1455 1454 1453 1452 1451 1449 1448 1446 1445 1444 1442 1441 1440 1438 1437 1434 1432 1430 1429 1427 1425 1425 1424 1424 1423